Regional Weather Roundup
Issued by NWS Newport/Morehead, NC

Current Version | Previous Version | Text Only | Print | Product List | Glossary On
Versions: 1 2 3 4 5 6 7 8 9 10 11 12 13 14 15 16 17 18 19 20 21 22 23 24 25 26 27 28 29 30 31 32 33 34 35 36 37 38 39 40 41 42 43 44 45 46 47 48 49 50
000
ASUS42 KMHX 171410
RWRMHX
WEATHER ROUNDUP FOR EASTERN NORTH CAROLINA
NATIONAL WEATHER SERVICE NEWPORT/MOREHEAD CITY NC
1000 AM EDT THU APR 17 2014

NOTE: "FAIR" INDICATES FEW OR NO CLOUDS BELOW 12,000 FEET
WITH NO SIGNIFICANT WEATHER AND/OR OBSTRUCTIONS TO VISIBILITY

NCZ015>017-031-032-045>047-102-103-171500-
NORTH COAST

CITY           SKY/WX    TMP DP  RH WIND       PRES   REMARKS
EDENTON        SUNNY     51  40  68 NE15      30.54R
ELIZABETH CITY MOSUNNY   51  39  63 NE21      30.55R
KITTY HAWK     SUNNY     51  40  67 N10G21    30.51R
MANTEO         SUNNY     51  40  67 NE21G30   30.52R

$$

NCZ045>047-081-094-103-104-171500-
CENTRAL COAST

CITY           SKY/WX    TMP DP  RH WIND       PRES   REMARKS
FRISCO         PTSUNNY   53  45  74 N17G29    30.46R
SWANQUARTER      N/A     54 N/A N/A NE17G23   30.47R

$$

NCZ095-097-098-100-101-171500-
SOUTHERN COAST

CITY           SKY/WX    TMP DP  RH WIND       PRES   REMARKS
BEAUFORT       SUNNY     56  45  66 NE17G25   30.48R
CEDAR ISLAND     N/A     52 N/A N/A N22G30    30.50S
JACKSONVILLE   SUNNY     51  39  63 N16       30.49R
NEWPORT          N/A     54  45  71 N12G18      N/A
PINEY ISLAND   CLOUDY    55  45  68 N18G28    30.48R
WILMINGTON     SUNNY     53  38  56 N13       30.47R


$$

NCZ011>013-027>030-043-044-078>080-089-090>093-098-171500-
COASTAL PLAIN

CITY           SKY/WX    TMP DP  RH WIND       PRES   REMARKS
AHOSKIE        SUNNY     47  37  66 N10       30.57R
CLINTON        SUNNY     48  37  63 N12G17    30.52R
ELIZABETHTOWN  SUNNY     48  36  62 CALM      30.49S
GOLDSBORO      SUNNY     48  37  64 NE10      30.51R
GREENVILLE     SUNNY     48  36  61 N13       30.53R
HAVELOCK       MOSUNNY   55  42  61 NE15      30.50R
KENANSVILLE    SUNNY     48  37  65 N9        30.52R
KINSTON        SUNNY     50  37  62 NE13G18   30.53R
NEW BERN       SUNNY     53  41  63 NE10      30.52R
RICHLANDS      SUNNY     50  36  57 N15       30.51R
ROANOKE RAPIDS NOT AVBL
ROCKY MOUNT      N/A    N/A N/A N/A MISG      30.56R
WASHINGTON     SUNNY     53  43  70 N10G17    30.52R
WHITEVILLE     SUNNY     48  36  62 NE8       30.48R

$$

AMZ130-135-150-152-154-156-158-170-250-252-270-ANZ085-086-088-633-658-670-171500-
MARINE OBSERVATIONS

STATION/POSITION TIME  TEMP    WIND        PRES    WAVE   SWELL
                       AIR SEA DIR/SP/G            HT/PER HT/PER
                 (UTC) (F)     (DEG/KT/KT) (MB)    (FT/S) (FT/S)
CHESAPEAKE LIGHT 1300   45      40/ 29/ 31 1034.2
BUOY 44014       1400   51 53   20/ 25/ 31 1032.4   10/ 7   7/10
DUCK             1400   47 48   20/ 23/ 26 1032.7
2E DUCK          1400      48                N/A     8/ 7   2/11
OREGON INLET     1400   49 49  360/ 16/ 21 1032.4
BUOY 44095       1400      49                N/A    10/10   3/11
HATTERAS CG      1400   51 53   10/ 27/ 32 1031.2
DIAMOND BUOY     NOT AVBL
CAPE LOOKOUT     1400   53      20/ 18/ 23 1031.7
BEAUFORT LAB     1400   53 57   10/ 17/ 21 1031.1
30 SE NEW RIVER  1400   53 64   30/ 23/ 27 1030.8    7/11   3/11
5 SE WRIGHTSVILL 1300   50 60   40/ 19/ 21 1030.4
FRYING PAN BUOY  1400   56 63   50/ 23/ 27 1028.9    9/ 7   2/10
BUOY 41001       NOT AVBL
BUOY 41002       NOT AVBL
BUOY 41004       NOT AVBL

$$



USA.gov is the U.S. government's official web portal to all federal, state and local government web resources and services.